Varmdo — SMXZ — position and weather

sailwx.info

Track history (hours):
 
Tides and Currents Weather Stations Pressure Air Temp Water Temp Dewpoint Dewpoint Depression Visibility Wind Speed Wind Dir Waves Ship Positions

Varmdo

Last reported at 2014-Oct-30 14:33 UTC. Time now 2014-Oct-30 15:13 UTC.
Position N 59°20' E 018°05'.

Length 38 m; draft 2.5 m.

Type: Passenger vessel. MMSI: 265520390.

Date/timePositionNaut miles runAvg speedWind from/ knotsBaromVisibWave heightAir tempDewpointWater temp
2014-Oct-30 14:33N 59°20' E 018°05'0 0.0
2014-Oct-30 13:33N 59°20' E 018°05'0 0.0
2014-Oct-30 12:24N 59°20' E 018°05'0 0.0
2014-Oct-30 11:27N 59°20' E 018°05'0 0.0
2014-Oct-30 10:33N 59°20' E 018°05'0 0.0
2014-Oct-30 09:30N 59°20' E 018°05'0 0.0
2014-Oct-30 08:33N 59°20' E 018°05'0 0.0
2014-Oct-30 07:33N 59°20' E 018°05'3 2.6
2014-Oct-30 06:33N 59°19' E 018°09'7 0.5
2014-Oct-29 17:29N 59°23' E 018°20'9 9.4
2014-Oct-29 16:33N 59°19' E 018°05'0 0.3
2014-Oct-29 15:32N 59°20' E 018°05'0 0.0
2014-Oct-29 14:23N 59°20' E 018°05'0 0.0
2014-Oct-29 13:32N 59°20' E 018°05'0 0.0
2014-Oct-29 12:32N 59°20' E 018°05'0 0.0
2014-Oct-29 11:32N 59°20' E 018°05'0 0.0
2014-Oct-29 10:29N 59°20' E 018°05'0 0.0
2014-Oct-29 09:26N 59°20' E 018°05'0 0.0
2014-Oct-29 08:32N 59°20' E 018°05'0 0.0
2014-Oct-29 07:29N 59°20' E 018°05'3 2.8
2014-Oct-29 06:33N 59°19' E 018°09'7 0.5
2014-Oct-28 17:29N 59°23' E 018°20'9 9.5
2014-Oct-28 16:33N 59°19' E 018°05'0 0.2
2014-Oct-28 15:11N 59°20' E 018°05'0 0.0
2014-Oct-28 14:19N 59°20' E 018°05'0 0.0
2014-Oct-28 13:28N 59°20' E 018°05'0 0.0
2014-Oct-28 12:31N 59°20' E 018°05'0 0.0
2014-Oct-28 11:29N 59°20' E 018°05'0 0.0
2014-Oct-28 10:26N 59°20' E 018°05'0 0.0
2014-Oct-28 09:25N 59°20' E 018°05'0 0.0
2014-Oct-28 08:32N 59°20' E 018°05'0 0.0
2014-Oct-28 07:25N 59°20' E 018°05'2 2.8
2014-Oct-28 06:33N 59°19' E 018°09'7 0.5
2014-Oct-27 17:28N 59°23' E 018°20'9 9.6
2014-Oct-27 16:33N 59°19' E 018°05'0 0.3
2014-Oct-27 15:31N 59°20' E 018°04'0 0.0
2014-Oct-27 14:31N 59°20' E 018°04'0 0.0
2014-Oct-27 13:31N 59°20' E 018°04'0 0.0
2014-Oct-27 12:31N 59°20' E 018°04'0 0.0
2014-Oct-27 11:25N 59°20' E 018°04'0 0.0
2014-Oct-27 10:31N 59°20' E 018°04'0 0.0
2014-Oct-27 09:31N 59°20' E 018°04'0 0.0
2014-Oct-27 08:32N 59°20' E 018°04'0 0.0
2014-Oct-27 07:32N 59°20' E 018°04'2 2.5
2014-Oct-27 06:34N 59°19' E 018°09'8 0.9
2014-Oct-26 21:14N 59°24' E 018°22'4 5.2
2014-Oct-26 20:33N 59°22' E 018°17'7 6.3
2014-Oct-26 19:32N 59°20' E 018°04'3 3.0
2014-Oct-26 18:33N 59°19' E 018°10'3 0.4
2014-Oct-26 09:33N 59°22' E 018°15'5 5.3
2014-Oct-26 08:32N 59°20' E 018°05'0 0.0
2014-Oct-26 07:32N 59°20' E 018°05'0 0.0
2014-Oct-26 06:32N 59°20' E 018°05'0 0.0
2014-Oct-26 05:32N 59°20' E 018°05'0 0.0
2014-Oct-26 04:32N 59°20' E 018°05'0 0.0
2014-Oct-26 03:29N 59°20' E 018°05'0 0.0
2014-Oct-26 02:32N 59°20' E 018°05'0 0.0
2014-Oct-26 01:32N 59°20' E 018°05'0 0.0
2014-Oct-26 00:32N 59°20' E 018°05'0 0.0
2014-Oct-25 23:32N 59°20' E 018°05'0 0.0
2014-Oct-25 22:32N 59°20' E 018°05'0 0.0
2014-Oct-25 21:29N 59°20' E 018°05'0 0.0
2014-Oct-25 20:32N 59°20' E 018°05'0 0.0
2014-Oct-25 19:32N 59°20' E 018°05'6 5.7
2014-Oct-25 18:33N 59°21' E 018°15'0 0.1
2014-Oct-25 12:33N 59°21' E 018°14'5 4.6
2014-Oct-25 11:25N 59°20' E 018°04'0 0.0
2014-Oct-25 10:31N 59°20' E 018°04'0 0.0
2014-Oct-25 09:22N 59°20' E 018°04'8 9.3
2014-Oct-25 08:28N 59°23' E 018°20'3 0.2
2014-Oct-24 15:31N 59°21' E 018°14'5 4.6
2014-Oct-24 14:23N 59°20' E 018°04'0 0.0
2014-Oct-24 13:05N 59°20' E 018°04'5 9.6
2014-Oct-24 12:32N 59°21' E 018°15'4 0.7
2014-Oct-24 07:08N 59°23' E 018°20'711.4
2014-Oct-24 06:32N 59°19' E 018°09'0 0.5
2014-Oct-24 05:33N 59°19' E 018°10'6 0.5
2014-Oct-23 16:31N 59°23' E 018°20'8 8.6
2014-Oct-23 15:32N 59°20' E 018°05'0 0.2
2014-Oct-23 14:32N 59°20' E 018°05'0 0.0
2014-Oct-23 13:29N 59°20' E 018°05'0 0.0
2014-Oct-23 12:32N 59°20' E 018°05'0 0.0
2014-Oct-23 11:32N 59°20' E 018°05'0 0.0
2014-Oct-23 10:32N 59°20' E 018°05'0 0.0
2014-Oct-23 09:26N 59°20' E 018°05'0 0.0
2014-Oct-23 08:23N 59°20' E 018°05'0 0.0
2014-Oct-23 07:32N 59°20' E 018°05'0 0.0
2014-Oct-23 06:29N 59°20' E 018°05'2 2.7
2014-Oct-23 05:33N 59°19' E 018°09'7 0.5
2014-Oct-22 16:29N 59°23' E 018°20'9 9.3
2014-Oct-22 15:33N 59°19' E 018°05'0 0.2
2014-Oct-22 14:29N 59°20' E 018°05'0 0.0
2014-Oct-22 13:29N 59°20' E 018°05'0 0.0
2014-Oct-22 12:29N 59°20' E 018°05'0 0.0
2014-Oct-22 11:26N 59°20' E 018°05'0 0.0
2014-Oct-22 10:29N 59°20' E 018°05'0 0.0
2014-Oct-22 09:26N 59°20' E 018°05'0 0.0
2014-Oct-22 08:23N 59°20' E 018°05'0 0.0
2014-Oct-22 07:23N 59°20' E 018°05'0 0.0
2014-Oct-22 06:32N 59°20' E 018°05'2 2.5
2014-Oct-22 05:33N 59°19' E 018°09'7 0.5
2014-Oct-21 16:29N 59°23' E 018°20'9 9.0
2014-Oct-21 15:32N 59°20' E 018°05'0 0.2
2014-Oct-21 14:31N 59°20' E 018°05'0 0.0
2014-Oct-21 13:31N 59°20' E 018°05'0 0.0
2014-Oct-21 12:31N 59°20' E 018°05'0 0.0
2014-Oct-21 11:31N 59°20' E 018°05'0 0.0
2014-Oct-21 10:31N 59°20' E 018°05'0 0.0
2014-Oct-21 09:31N 59°20' E 018°05'0 0.0
2014-Oct-21 08:28N 59°20' E 018°05'0 0.0
2014-Oct-21 07:31N 59°20' E 018°05'0 0.0
2014-Oct-21 06:28N 59°20' E 018°05'3 2.8
2014-Oct-21 05:33N 59°19' E 018°09'7 0.5
2014-Oct-20 16:30N 59°23' E 018°20'9 9.4
2014-Oct-20 15:33N 59°19' E 018°05'  
Track history (hours):
 
Tides and Currents Weather Stations Pressure Air Temp Water Temp Dewpoint Dewpoint Depression Visibility Wind Speed Wind Dir Waves Ship Positions

Varmdo

Last reported at 2014-Oct-30 14:33 UTC. Time now 2014-Oct-30 15:13 UTC.
Position N 59°20' E 018°05'.

Length 38 m; draft 2.5 m.

Type: Passenger vessel. MMSI: 265520390.

Date/timePositionNaut miles runAvg speedWind from/ knotsBaromVisibWave heightAir tempDewpointWater temp
2014-Oct-30 14:33N 59°20' E 018°05'0 0.0
2014-Oct-30 13:33N 59°20' E 018°05'0 0.0
2014-Oct-30 12:24N 59°20' E 018°05'0 0.0
2014-Oct-30 11:27N 59°20' E 018°05'0 0.0
2014-Oct-30 10:33N 59°20' E 018°05'0 0.0
2014-Oct-30 09:30N 59°20' E 018°05'0 0.0
2014-Oct-30 08:33N 59°20' E 018°05'0 0.0
2014-Oct-30 07:33N 59°20' E 018°05'3 2.6
2014-Oct-30 06:33N 59°19' E 018°09'7 0.5
2014-Oct-29 17:29N 59°23' E 018°20'9 9.4
2014-Oct-29 16:33N 59°19' E 018°05'0 0.3
2014-Oct-29 15:32N 59°20' E 018°05'0 0.0
2014-Oct-29 14:23N 59°20' E 018°05'0 0.0
2014-Oct-29 13:32N 59°20' E 018°05'0 0.0
2014-Oct-29 12:32N 59°20' E 018°05'0 0.0
2014-Oct-29 11:32N 59°20' E 018°05'0 0.0
2014-Oct-29 10:29N 59°20' E 018°05'0 0.0
2014-Oct-29 09:26N 59°20' E 018°05'0 0.0
2014-Oct-29 08:32N 59°20' E 018°05'0 0.0
2014-Oct-29 07:29N 59°20' E 018°05'3 2.8
2014-Oct-29 06:33N 59°19' E 018°09'7 0.5
2014-Oct-28 17:29N 59°23' E 018°20'9 9.5
2014-Oct-28 16:33N 59°19' E 018°05'0 0.2
2014-Oct-28 15:11N 59°20' E 018°05'0 0.0
2014-Oct-28 14:19N 59°20' E 018°05'0 0.0
2014-Oct-28 13:28N 59°20' E 018°05'0 0.0
2014-Oct-28 12:31N 59°20' E 018°05'0 0.0
2014-Oct-28 11:29N 59°20' E 018°05'0 0.0
2014-Oct-28 10:26N 59°20' E 018°05'0 0.0
2014-Oct-28 09:25N 59°20' E 018°05'0 0.0
2014-Oct-28 08:32N 59°20' E 018°05'0 0.0
2014-Oct-28 07:25N 59°20' E 018°05'2 2.8
2014-Oct-28 06:33N 59°19' E 018°09'7 0.5
2014-Oct-27 17:28N 59°23' E 018°20'9 9.6
2014-Oct-27 16:33N 59°19' E 018°05'0 0.3
2014-Oct-27 15:31N 59°20' E 018°04'0 0.0
2014-Oct-27 14:31N 59°20' E 018°04'0 0.0
2014-Oct-27 13:31N 59°20' E 018°04'0 0.0
2014-Oct-27 12:31N 59°20' E 018°04'0 0.0
2014-Oct-27 11:25N 59°20' E 018°04'0 0.0
2014-Oct-27 10:31N 59°20' E 018°04'0 0.0
2014-Oct-27 09:31N 59°20' E 018°04'0 0.0
2014-Oct-27 08:32N 59°20' E 018°04'0 0.0
2014-Oct-27 07:32N 59°20' E 018°04'2 2.5
2014-Oct-27 06:34N 59°19' E 018°09'8 0.9
2014-Oct-26 21:14N 59°24' E 018°22'4 5.2
2014-Oct-26 20:33N 59°22' E 018°17'7 6.3
2014-Oct-26 19:32N 59°20' E 018°04'3 3.0
2014-Oct-26 18:33N 59°19' E 018°10'3 0.4
2014-Oct-26 09:33N 59°22' E 018°15'5 5.3
2014-Oct-26 08:32N 59°20' E 018°05'0 0.0
2014-Oct-26 07:32N 59°20' E 018°05'0 0.0
2014-Oct-26 06:32N 59°20' E 018°05'0 0.0
2014-Oct-26 05:32N 59°20' E 018°05'0 0.0
2014-Oct-26 04:32N 59°20' E 018°05'0 0.0
2014-Oct-26 03:29N 59°20' E 018°05'0 0.0
2014-Oct-26 02:32N 59°20' E 018°05'0 0.0
2014-Oct-26 01:32N 59°20' E 018°05'0 0.0
2014-Oct-26 00:32N 59°20' E 018°05'0 0.0
2014-Oct-25 23:32N 59°20' E 018°05'0 0.0
2014-Oct-25 22:32N 59°20' E 018°05'0 0.0
2014-Oct-25 21:29N 59°20' E 018°05'0 0.0
2014-Oct-25 20:32N 59°20' E 018°05'0 0.0
2014-Oct-25 19:32N 59°20' E 018°05'6 5.7
2014-Oct-25 18:33N 59°21' E 018°15'0 0.1
2014-Oct-25 12:33N 59°21' E 018°14'5 4.6
2014-Oct-25 11:25N 59°20' E 018°04'0 0.0
2014-Oct-25 10:31N 59°20' E 018°04'0 0.0
2014-Oct-25 09:22N 59°20' E 018°04'8 9.3
2014-Oct-25 08:28N 59°23' E 018°20'3 0.2
2014-Oct-24 15:31N 59°21' E 018°14'5 4.6
2014-Oct-24 14:23N 59°20' E 018°04'0 0.0
2014-Oct-24 13:05N 59°20' E 018°04'5 9.6
2014-Oct-24 12:32N 59°21' E 018°15'4 0.7
2014-Oct-24 07:08N 59°23' E 018°20'711.4
2014-Oct-24 06:32N 59°19' E 018°09'0 0.5
2014-Oct-24 05:33N 59°19' E 018°10'6 0.5
2014-Oct-23 16:31N 59°23' E 018°20'8 8.6
2014-Oct-23 15:32N 59°20' E 018°05'0 0.2
2014-Oct-23 14:32N 59°20' E 018°05'0 0.0
2014-Oct-23 13:29N 59°20' E 018°05'0 0.0
2014-Oct-23 12:32N 59°20' E 018°05'0 0.0
2014-Oct-23 11:32N 59°20' E 018°05'0 0.0
2014-Oct-23 10:32N 59°20' E 018°05'0 0.0
2014-Oct-23 09:26N 59°20' E 018°05'0 0.0
2014-Oct-23 08:23N 59°20' E 018°05'0 0.0
2014-Oct-23 07:32N 59°20' E 018°05'0 0.0
2014-Oct-23 06:29N 59°20' E 018°05'2 2.7
2014-Oct-23 05:33N 59°19' E 018°09'7 0.5
2014-Oct-22 16:29N 59°23' E 018°20'9 9.3
2014-Oct-22 15:33N 59°19' E 018°05'0 0.2
2014-Oct-22 14:29N 59°20' E 018°05'0 0.0
2014-Oct-22 13:29N 59°20' E 018°05'0 0.0
2014-Oct-22 12:29N 59°20' E 018°05'0 0.0
2014-Oct-22 11:26N 59°20' E 018°05'0 0.0
2014-Oct-22 10:29N 59°20' E 018°05'0 0.0
2014-Oct-22 09:26N 59°20' E 018°05'0 0.0
2014-Oct-22 08:23N 59°20' E 018°05'0 0.0
2014-Oct-22 07:23N 59°20' E 018°05'0 0.0
2014-Oct-22 06:32N 59°20' E 018°05'2 2.5
2014-Oct-22 05:33N 59°19' E 018°09'7 0.5
2014-Oct-21 16:29N 59°23' E 018°20'9 9.0
2014-Oct-21 15:32N 59°20' E 018°05'0 0.2
2014-Oct-21 14:31N 59°20' E 018°05'0 0.0
2014-Oct-21 13:31N 59°20' E 018°05'0 0.0
2014-Oct-21 12:31N 59°20' E 018°05'0 0.0
2014-Oct-21 11:31N 59°20' E 018°05'0 0.0
2014-Oct-21 10:31N 59°20' E 018°05'0 0.0
2014-Oct-21 09:31N 59°20' E 018°05'0 0.0
2014-Oct-21 08:28N 59°20' E 018°05'0 0.0
2014-Oct-21 07:31N 59°20' E 018°05'0 0.0
2014-Oct-21 06:28N 59°20' E 018°05'3 2.8
2014-Oct-21 05:33N 59°19' E 018°09'7 0.5
2014-Oct-20 16:30N 59°23' E 018°20'9 9.4
2014-Oct-20 15:33N 59°19' E 018°05'  

Dump ship's entire track history